Phillips, WI

3:18 AM CST on December 16, 2017 (GMT -0600)
Price County

Weather History for KPBH - January, 2012

Change the Weather History Date:

Tuesday, January 24, 2012

  Actual Average Record
Temperature  
Mean Temperature 22 °F -  
Max Temperature 26 °F 20 °F 35 °F (2006)
Min Temperature 17 °F 3 °F -27 °F (2008)
Degree Days  
Heating Degree Days 44    
Moisture  
Dew Point 18 °F    
Average Humidity 84    
Maximum Humidity 93    
Minimum Humidity 69    
Precipitation  
Precipitation 0.00 in - - ()
Sea Level Pressure  
Sea Level Pressure 30.05 in    
Wind  
Wind Speed 2 mph (WNW)    
Max Wind Speed 8 mph    
Max Gust Speed 18 mph    
Visibility 8 miles    
Events Snow    
Averages and records for this station are not official NWS values.
T = Trace of Precipitation, MM = Missing Value Source: NWS Daily Summary

Daily Weather History Graph

Daily Weather History Graph

Search for Another Location

Airport or City:

Trip Planner

Search our weather history database for the weather conditions in past years. The results will help you decide how hot, cold, wet, or windy it might be!

Date:

Astronomy

Jan. 24, 2012 Rise Set
Actual Time 7:32 AM CST 4:55 PM CST
Civil Twilight 6:59 AM CST 5:28 PM CST
Nautical Twilight 6:23 AM CST 6:04 PM CST
Astronomical Twilight 5:48 AM CST 6:39 PM CST
Moon 7:54 AM CST (1/24) 6:55 PM CST (1/24)
Length of Visible Light 10h 28m
Length of Day
9h 23m
New Moon, 2% of the Moon is Illuminated
Jan 24
New Moon
Jan 30
First Quarter
Feb 7
Full
Feb 14
Last Quarter
Feb 21
New

Hourly Weather History & Observations

Time (CST) Temp. Windchill Dew Point Humidity Pressure Visibility Wind Dir Wind Speed Gust Speed Precip Events Conditions
12:15 AM 24.8 °F - 21.2 °F 86% 29.75 in 10.0 mi Calm Calm - N/A   Overcast
12:35 AM 23.0 °F 13.9 °F 21.2 °F 93% 29.76 in 10.0 mi WNW 8.1 mph 18.4 mph N/A   Overcast
12:55 AM 23.0 °F - 21.2 °F 93% 29.77 in 10.0 mi Calm Calm - N/A   Overcast
1:15 AM 23.0 °F 15.8 °F 21.2 °F 93% 29.78 in 10.0 mi West 5.8 mph - N/A   Overcast
1:35 AM 23.0 °F 15.8 °F 21.2 °F 93% 29.79 in 10.0 mi WNW 5.8 mph - N/A   Overcast
1:55 AM 23.0 °F 15.8 °F 19.4 °F 86% 29.81 in 10.0 mi WNW 5.8 mph - N/A   Overcast
2:35 AM 21.2 °F 11.7 °F 19.4 °F 93% 29.83 in 10.0 mi WNW 8.1 mph - N/A   Overcast
2:55 AM 21.2 °F 13.6 °F 19.4 °F 93% 29.85 in 7.0 mi WNW 5.8 mph - N/A Snow Light Snow
3:15 AM 21.2 °F 14.9 °F 19.4 °F 93% 29.85 in 5.0 mi WNW 4.6 mph - N/A Snow Light Snow
3:35 AM 21.2 °F 14.9 °F 19.4 °F 93% 29.87 in 4.0 mi WNW 4.6 mph - N/A Snow Light Snow
3:55 AM 21.2 °F 16.4 °F 19.4 °F 93% 29.88 in 4.0 mi West 3.5 mph - N/A Snow Light Snow
4:15 AM 21.2 °F 11.7 °F 19.4 °F 93% 29.89 in 3.0 mi WNW 8.1 mph - N/A Snow Light Snow
4:35 AM 21.2 °F 14.9 °F 19.4 °F 93% 29.90 in 3.0 mi WNW 4.6 mph - N/A Snow Light Snow
4:55 AM 21.2 °F 13.6 °F 17.6 °F 86% 29.91 in 4.0 mi WNW 5.8 mph - N/A Snow Light Snow
5:15 AM 21.2 °F - 17.6 °F 86% 29.92 in 5.0 mi Calm Calm - N/A Snow Light Snow
5:35 AM 21.2 °F - 17.6 °F 86% 29.93 in 7.0 mi Calm Calm - N/A Snow Light Snow
5:55 AM 21.2 °F - 17.6 °F 86% 29.94 in 5.0 mi Calm Calm - N/A Snow Light Snow
6:15 AM 21.2 °F - 17.6 °F 86% 29.96 in 5.0 mi Calm Calm - N/A Snow Light Snow
6:35 AM 21.2 °F - 17.6 °F 86% 29.97 in 5.0 mi Calm Calm - N/A Snow Light Snow
6:55 AM 21.2 °F - 17.6 °F 86% 29.99 in 7.0 mi Calm Calm - N/A Snow Light Snow
7:15 AM 21.2 °F - 17.6 °F 86% 30.00 in 7.0 mi Calm Calm - N/A Snow Light Snow
7:35 AM 19.4 °F - 17.6 °F 93% 30.01 in 7.0 mi Calm Calm - N/A Snow Light Snow
8:15 AM 19.4 °F - 17.6 °F 93% 30.05 in 7.0 mi Calm Calm - N/A Snow Light Snow
8:35 AM 19.4 °F 10.4 °F 17.6 °F 93% 30.05 in 4.0 mi WNW 6.9 mph - N/A Snow Light Snow
8:55 AM 19.4 °F - 15.8 °F 86% 30.07 in 5.0 mi Calm Calm - N/A Snow Light Snow
9:35 AM 21.2 °F - 17.6 °F 86% 30.09 in 5.0 mi Calm Calm - N/A Snow Light Snow
9:55 AM 21.2 °F 13.6 °F 17.6 °F 86% 30.10 in 7.0 mi WNW 5.8 mph - N/A Snow Light Snow
10:15 AM 21.2 °F - 15.8 °F 80% 30.11 in 10.0 mi Calm Calm - N/A   Overcast
10:35 AM 21.2 °F - 17.6 °F 86% 30.12 in 10.0 mi Calm Calm - N/A Snow Light Snow
10:55 AM 21.2 °F - 17.6 °F 86% 30.13 in 10.0 mi Calm Calm - N/A Snow Light Snow
11:15 AM 21.2 °F - 17.6 °F 86% 30.13 in 10.0 mi Calm Calm - N/A   Overcast
11:35 AM 21.2 °F - 15.8 °F 80% 30.12 in 10.0 mi Calm Calm - N/A   Mostly Cloudy
11:55 AM 21.2 °F - 17.6 °F 86% 30.13 in 10.0 mi Calm Calm - N/A   Scattered Clouds
12:35 PM 24.8 °F - 17.6 °F 74% 30.13 in 10.0 mi Calm Calm - N/A   Scattered Clouds
12:55 PM 24.8 °F - 17.6 °F 74% 30.13 in 10.0 mi Calm Calm - N/A   Clear
1:15 PM 24.8 °F - 17.6 °F 74% 30.13 in 10.0 mi Calm Calm - N/A   Scattered Clouds
1:35 PM 24.8 °F - 17.6 °F 74% 30.13 in 10.0 mi Calm Calm - N/A   Clear
1:55 PM 24.8 °F - 17.6 °F 74% 30.14 in 10.0 mi Calm Calm - N/A   Clear
2:15 PM 26.6 °F - 17.6 °F 69% 30.14 in 10.0 mi Calm Calm - N/A   Clear
2:35 PM 26.6 °F 22.6 °F 17.6 °F 69% 30.15 in 10.0 mi SSW 3.5 mph - N/A   Clear
2:55 PM 26.6 °F - 17.6 °F 69% 30.16 in 10.0 mi Calm Calm - N/A   Clear
3:15 PM 26.6 °F 22.6 °F 17.6 °F 69% 30.17 in 10.0 mi SW 3.5 mph - N/A   Clear
3:35 PM 26.6 °F - 17.6 °F 69% 30.18 in 10.0 mi Calm Calm - N/A   Clear
3:55 PM 26.6 °F - 17.6 °F 69% 30.18 in 10.0 mi Calm Calm - N/A   Clear
4:15 PM 26.6 °F - 17.6 °F 69% 30.19 in 10.0 mi Calm Calm - N/A   Clear
4:35 PM 26.6 °F - 17.6 °F 69% 30.19 in 10.0 mi Calm Calm - N/A   Clear
4:55 PM 26.6 °F - 17.6 °F 69% 30.21 in 10.0 mi Calm Calm - N/A   Clear
5:15 PM 24.8 °F - 17.6 °F 74% 30.22 in 10.0 mi Calm Calm - N/A   Clear
5:35 PM 24.8 °F - 17.6 °F 74% 30.21 in 10.0 mi Calm Calm - N/A   Clear
5:55 PM 23.0 °F - 17.6 °F 80% 30.22 in 10.0 mi Calm Calm - N/A   Clear
6:15 PM 23.0 °F - 17.6 °F 80% 30.22 in 10.0 mi Calm Calm - N/A   Clear
6:35 PM 19.4 °F - 15.8 °F 86% 30.22 in 10.0 mi Calm Calm - N/A   Clear
6:55 PM 19.4 °F - 15.8 °F 86% 30.22 in 10.0 mi Calm Calm - N/A   Clear
7:35 PM 19.4 °F - 15.8 °F 86% 30.22 in 10.0 mi Calm Calm - N/A   Clear
7:55 PM 17.6 °F - 15.8 °F 93% 30.24 in 10.0 mi Calm Calm - N/A   Clear
8:15 PM 17.6 °F - 15.8 °F 93% 30.23 in 10.0 mi Calm Calm - N/A   Clear
8:35 PM 17.6 °F - 15.8 °F 93% 30.24 in 10.0 mi Calm Calm - N/A   Clear
8:55 PM 17.6 °F - 15.8 °F 93% 30.24 in 10.0 mi Calm Calm - N/A   Clear
9:15 PM 17.6 °F - 15.8 °F 93% 30.24 in 7.0 mi Calm Calm - N/A   Scattered Clouds
9:35 PM 17.6 °F 10.7 °F 15.8 °F 93% 30.25 in 7.0 mi SW 4.6 mph - N/A   Mostly Cloudy
9:55 PM 17.6 °F - 15.8 °F 93% 30.24 in 4.0 mi Calm Calm - N/A   Overcast
10:15 PM 17.6 °F - 15.8 °F 93% 30.23 in 4.0 mi Calm Calm - N/A   Overcast
10:35 PM 17.6 °F - 15.8 °F 93% 30.23 in 4.0 mi Calm Calm - N/A   Overcast
10:55 PM 17.6 °F - 15.8 °F 93% 30.23 in 2.5 mi Calm Calm - N/A   Overcast
11:15 PM 17.6 °F - 15.8 °F 93% 30.23 in 4.0 mi Calm Calm - N/A   Overcast
11:35 PM 17.6 °F - 17.6 °F 100% 30.23 in 4.0 mi Calm Calm - N/A   Overcast
11:55 PM 17.6 °F - 17.6 °F 100% 30.23 in 4.0 mi Calm Calm - N/A   Overcast